contact:dominique.lefevre@mio.osupytheas.fr, maurice.libes@osupytheas.fr, didier.mallarino@osupytheas.fr
Project:EMSO http://www.emso-fr.org/EMSO-France
Depth: 2436.0 m
Title:EMSO Ligure Ouest : Data MII capteur AQUADOPP
Date,Latitude,Longitude,X_East,Y_North,Z_Up,Amplitude_X,Amplitude_Y,Amplitude_Z,Batterie,SoundSpeed,Heading,Pitch,Roll,Pressure,TIS,Speed,Direction
, degrees North, degrees East, m.s-1, m.s-1,m.s-1, 1, 1, 1, Volt, m.s-1, degree, degree, degree, dbar, degree_C, m.s-1, degree
2022-12-20T00:04:03,42.805,6.029,0.104,-0.014,0.099,102.0,103.0,102.0,13.3,1505.2,323.6,-0.8,1.8,2471.217,13.28,0.104,97.7
2022-12-20T00:07:03,42.805,6.029,0.041,-0.012,0.012,101.0,103.0,101.0,13.4,1505.2,323.6,-0.8,1.9,2471.205,13.28,0.042,106.3
2022-12-20T00:10:03,42.805,6.029,0.072,-0.015,0.048,101.0,102.0,101.0,13.3,1505.2,319.4,-0.8,1.9,2471.236,13.28,0.073,101.8
2022-12-20T00:13:03,42.805,6.029,0.037,-0.021,0.039,101.0,103.0,101.0,13.3,1505.2,327.4,-0.7,1.8,2471.202,13.28,0.042,119.6
2022-12-20T00:16:03,42.805,6.029,0.066,-0.014,0.062,101.0,102.0,102.0,13.4,1505.2,320.2,-0.8,1.8,2471.204,13.28,0.067,102.0
2022-12-20T00:19:03,42.805,6.029,0.042,-0.037,0.024,102.0,104.0,100.0,13.4,1505.2,333.4,-0.7,1.8,2471.175,13.28,0.055,131.4
2022-12-20T00:22:03,42.805,6.029,0.05,-0.028,0.036,100.0,101.0,102.0,13.3,1505.2,321.0,-0.7,1.8,2471.17,13.28,0.057,119.3
2022-12-20T00:25:03,42.805,6.029,0.015,-0.028,0.017,101.0,104.0,101.0,13.4,1505.2,328.8,-0.8,1.8,2471.176,13.28,0.031,151.8
2022-12-20T00:28:03,42.805,6.029,0.065,-0.051,-0.003,101.0,103.0,101.0,13.4,1505.2,329.1,-0.7,1.8,2471.2,13.28,0.082,128.1
2022-12-20T00:31:03,42.805,6.029,0.058,-0.031,0.003,102.0,103.0,101.0,13.4,1505.2,322.5,-0.7,1.8,2471.199,13.28,0.065,118.1
2022-12-20T00:34:03,42.805,6.029,0.058,-0.019,0.069,102.0,102.0,101.0,13.4,1505.2,317.6,-0.8,1.8,2471.188,13.28,0.061,108.1
2022-12-20T00:37:03,42.805,6.029,0.07,-0.011,0.038,100.0,103.0,101.0,13.4,1505.2,321.6,-0.8,1.8,2471.22,13.28,0.07,98.9
2022-12-20T00:40:03,42.805,6.029,0.073,-0.036,0.052,101.0,103.0,101.0,13.4,1505.2,329.6,-0.8,1.8,2471.148,13.28,0.081,116.2
2022-12-20T00:43:03,42.805,6.029,0.039,-0.038,-0.006,101.0,103.0,101.0,13.4,1505.2,322.2,-0.8,1.8,2471.196,13.28,0.054,134.3
2022-12-20T00:46:03,42.805,6.029,0.06,-0.025,0.043,101.0,102.0,101.0,13.4,1505.2,318.3,-0.7,1.9,2471.215,13.28,0.064,112.6
2022-12-20T00:49:03,42.805,6.029,0.046,-0.021,0.03,102.0,102.0,102.0,13.4,1505.2,322.6,-0.8,1.8,2471.233,13.28,0.05,114.5
2022-12-20T00:52:03,42.805,6.029,0.064,-0.035,0.026,101.0,101.0,101.0,13.3,1505.2,327.6,-0.8,1.8,2471.2,13.28,0.072,118.7
2022-12-20T00:55:02,42.805,6.029,0.08,-0.049,0.039,101.0,102.0,101.0,13.4,1505.2,320.8,-0.7,1.8,2471.21,13.28,0.093,121.5
2022-12-20T00:58:02,42.805,6.029,0.049,-0.024,0.017,101.0,102.0,101.0,13.4,1505.2,326.3,-0.8,1.8,2471.17,13.28,0.054,116.1
2022-12-20T01:04:02,42.805,6.029,0.032,-0.029,-0.018,103.0,104.0,102.0,13.4,1505.2,325.4,-0.8,1.8,2471.253,13.28,0.043,132.2
2022-12-20T01:07:02,42.805,6.029,0.04,-0.021,0.035,101.0,103.0,101.0,13.4,1505.2,321.2,-0.8,1.8,2471.222,13.28,0.045,117.7
2022-12-20T01:10:02,42.805,6.029,0.073,-0.029,0.059,100.0,102.0,102.0,13.4,1505.2,324.2,-0.8,1.8,2471.261,13.28,0.078,111.7
2022-12-20T01:13:03,42.805,6.029,0.062,-0.012,0.049,100.0,102.0,101.0,13.4,1505.2,316.5,-0.8,1.8,2471.273,13.28,0.063,101.0
2022-12-20T01:16:03,42.805,6.029,0.022,-0.045,0.013,101.0,103.0,100.0,13.3,1505.2,331.1,-0.8,1.8,2471.257,13.28,0.05,153.9
2022-12-20T01:19:03,42.805,6.029,0.032,-0.056,0.001,101.0,102.0,101.0,13.4,1505.2,327.1,-0.8,1.8,2471.239,13.28,0.064,150.3
2022-12-20T01:22:02,42.805,6.029,0.066,-0.029,0.045,101.0,102.0,101.0,13.4,1505.2,331.7,-0.7,1.8,2471.263,13.28,0.072,113.7
2022-12-20T01:25:03,42.805,6.029,0.06,-0.029,0.043,100.0,103.0,101.0,13.4,1505.2,328.7,-0.8,1.8,2471.261,13.28,0.066,115.8
2022-12-20T01:28:03,42.805,6.029,0.05,-0.037,0.033,102.0,102.0,100.0,13.3,1505.2,324.5,-0.7,1.8,2471.271,13.28,0.062,126.5
2022-12-20T01:31:03,42.805,6.029,0.075,-0.028,0.032,102.0,101.0,100.0,13.3,1505.2,317.4,-0.8,1.8,2471.229,13.28,0.08,110.5
2022-12-20T01:34:03,42.805,6.029,0.027,-0.021,0.019,101.0,101.0,101.0,13.3,1505.2,317.6,-0.8,1.8,2471.218,13.28,0.034,127.9
2022-12-20T01:37:03,42.805,6.029,0.053,-0.028,0.013,101.0,101.0,100.0,13.4,1505.2,319.1,-0.7,1.8,2471.213,13.28,0.059,117.9
2022-12-20T01:40:03,42.805,6.029,0.048,-0.017,0.043,101.0,103.0,101.0,13.4,1505.2,318.6,-0.8,1.8,2471.29,13.28,0.05,109.5
2022-12-20T01:43:03,42.805,6.029,0.046,-0.041,0.026,101.0,103.0,102.0,13.3,1505.2,333.7,-0.8,1.8,2471.222,13.28,0.061,131.7
2022-12-20T01:46:03,42.805,6.029,0.024,-0.036,0.014,101.0,102.0,101.0,13.3,1505.2,317.6,-0.8,1.8,2471.209,13.28,0.043,146.3
2022-12-20T01:49:03,42.805,6.029,0.015,-0.027,0.025,101.0,101.0,101.0,13.4,1505.2,330.8,-0.8,1.8,2471.265,13.28,0.03,150.9
2022-12-20T01:52:03,42.805,6.029,0.055,-0.04,0.017,101.0,101.0,101.0,13.3,1505.2,325.1,-0.8,1.8,2471.245,13.28,0.068,126.0
2022-12-20T01:55:03,42.805,6.029,0.044,-0.035,0.043,100.0,102.0,101.0,13.4,1505.2,323.8,-0.8,1.8,2471.21,13.28,0.056,128.5
2022-12-20T01:58:03,42.805,6.029,0.058,-0.036,0.008,100.0,101.0,101.0,13.4,1505.2,318.8,-0.8,1.8,2471.229,13.28,0.068,121.8
2022-12-20T03:04:02,42.805,6.029,0.036,-0.022,0.037,103.0,102.0,100.0,13.4,1505.1,319.6,-0.8,1.8,2471.718,13.27,0.042,121.4
2022-12-20T03:07:03,42.805,6.029,0.032,-0.035,0.032,102.0,101.0,101.0,13.3,1505.2,322.8,-0.8,1.8,2471.636,13.28,0.047,137.6
2022-12-20T03:10:03,42.805,6.029,0.021,-0.003,0.034,101.0,102.0,101.0,13.4,1505.2,328.3,-0.8,1.8,2471.577,13.28,0.021,98.1
2022-12-20T03:13:03,42.805,6.029,0.063,-0.056,0.002,101.0,103.0,101.0,13.4,1505.2,321.4,-0.7,1.8,2471.53,13.28,0.084,131.6
2022-12-20T03:16:03,42.805,6.029,0.038,-0.013,0.072,101.0,102.0,100.0,13.4,1505.2,328.7,-0.8,1.8,2471.465,13.28,0.04,108.9
2022-12-20T03:19:03,42.805,6.029,0.074,-0.043,0.031,102.0,103.0,101.0,13.3,1505.2,322.0,-0.8,1.9,2471.454,13.28,0.085,120.2
2022-12-20T03:22:03,42.805,6.029,0.033,-0.045,-0.003,102.0,103.0,99.0,13.3,1505.2,330.4,-0.8,1.8,2471.399,13.28,0.055,143.7
2022-12-20T03:25:03,42.805,6.029,0.053,-0.044,0.026,101.0,101.0,101.0,13.4,1505.2,330.0,-0.8,1.8,2471.37,13.28,0.068,129.7
2022-12-20T03:28:06,42.805,6.029,0.021,-0.035,0.023,102.0,102.0,100.0,13.3,1505.2,331.5,-0.8,1.8,2471.342,13.28,0.04,149.0
2022-12-20T03:31:03,42.805,6.029,0.01,-0.052,-0.025,101.0,102.0,101.0,13.4,1505.2,330.1,-0.8,1.8,2471.351,13.28,0.052,169.1
2022-12-20T03:34:03,42.805,6.029,0.038,-0.039,0.01,101.0,102.0,101.0,13.3,1505.2,324.1,-0.7,1.8,2471.344,13.28,0.054,135.7
2022-12-20T03:37:03,42.805,6.029,0.028,-0.055,0.019,103.0,101.0,100.0,13.4,1505.2,336.4,-0.7,1.8,2471.301,13.28,0.061,153.0
2022-12-20T03:40:03,42.805,6.029,0.047,-0.041,0.026,101.0,101.0,101.0,13.4,1505.2,323.7,-0.8,1.8,2471.309,13.28,0.062,131.1
2022-12-20T03:43:03,42.805,6.029,0.04,-0.062,0.007,100.0,101.0,101.0,13.4,1505.2,332.1,-0.7,1.8,2471.328,13.28,0.073,147.2
2022-12-20T03:46:03,42.805,6.029,0.045,-0.044,0.022,100.0,102.0,101.0,13.4,1505.2,328.1,-0.7,1.8,2471.325,13.28,0.062,134.4
2022-12-20T03:49:03,42.805,6.029,0.049,-0.065,-0.004,101.0,101.0,101.0,13.4,1505.2,331.0,-0.8,1.8,2471.28,13.28,0.081,143.0
2022-12-20T03:52:03,42.805,6.029,0.021,-0.055,-0.018,101.0,101.0,101.0,13.4,1505.2,334.5,-0.8,1.8,2471.321,13.28,0.058,159.1
2022-12-20T03:55:03,42.805,6.029,0.035,-0.032,0.028,101.0,102.0,101.0,13.4,1505.2,329.4,-0.8,1.8,2471.281,13.28,0.047,132.4
2022-12-20T03:58:03,42.805,6.029,0.039,-0.037,0.015,102.0,101.0,101.0,13.4,1505.2,334.1,-0.7,1.9,2471.292,13.28,0.053,133.5
2022-12-20T04:04:03,42.805,6.029,0.05,-0.043,0.056,100.0,103.0,102.0,13.3,1505.2,324.6,-0.8,1.8,2471.369,13.28,0.065,130.7
2022-12-20T04:07:03,42.805,6.029,0.06,-0.044,0.02,101.0,102.0,101.0,13.4,1505.2,317.4,-0.7,1.8,2471.317,13.28,0.074,126.3
2022-12-20T04:10:03,42.805,6.029,0.058,-0.039,0.024,102.0,102.0,101.0,13.4,1505.2,327.9,-0.8,1.8,2471.366,13.28,0.069,123.9
2022-12-20T04:13:03,42.805,6.029,0.043,-0.011,0.054,101.0,102.0,101.0,13.4,1505.2,317.4,-0.7,1.8,2471.338,13.28,0.044,104.3
2022-12-20T04:16:03,42.805,6.029,0.05,-0.06,0.032,101.0,101.0,101.0,13.4,1505.2,330.8,-0.8,1.8,2471.344,13.28,0.078,140.2
2022-12-20T04:19:03,42.805,6.029,0.029,-0.054,0.0,101.0,102.0,101.0,13.3,1505.2,325.9,-0.7,1.8,2471.295,13.28,0.061,151.8
2022-12-20T04:22:03,42.805,6.029,0.044,-0.042,0.0,101.0,102.0,101.0,13.4,1505.2,316.5,-0.8,1.9,2471.297,13.28,0.06,133.7
2022-12-20T04:25:03,42.805,6.029,0.045,-0.029,0.043,101.0,101.0,101.0,13.3,1505.2,327.7,-0.7,1.8,2471.317,13.28,0.053,122.8
2022-12-20T04:28:03,42.805,6.029,0.024,-0.049,0.039,101.0,102.0,101.0,13.4,1505.2,331.5,-0.7,1.8,2471.28,13.28,0.054,153.9
2022-12-20T04:31:03,42.805,6.029,0.039,-0.046,0.029,102.0,101.0,101.0,13.4,1505.2,328.2,-0.8,1.9,2471.313,13.28,0.06,139.7
2022-12-20T04:34:03,42.805,6.029,0.021,-0.045,0.025,101.0,102.0,101.0,13.4,1505.2,329.6,-0.8,1.8,2471.332,13.28,0.049,155.0
2022-12-20T04:37:03,42.805,6.029,0.04,-0.044,0.0,100.0,101.0,101.0,13.4,1505.2,323.6,-0.8,1.8,2471.327,13.28,0.059,137.7
2022-12-20T04:40:03,42.805,6.029,0.032,-0.022,0.044,101.0,101.0,101.0,13.3,1505.2,317.3,-0.7,1.8,2471.315,13.28,0.038,124.5
2022-12-20T04:43:03,42.805,6.029,0.04,-0.051,0.022,101.0,101.0,100.0,13.4,1505.2,333.7,-0.8,1.8,2471.337,13.28,0.064,141.9
2022-12-20T04:46:03,42.805,6.029,0.03,-0.035,0.041,101.0,100.0,101.0,13.3,1505.2,332.3,-0.8,1.8,2471.347,13.28,0.046,139.4
2022-12-20T04:49:03,42.805,6.029,0.037,-0.042,0.014,100.0,101.0,101.0,13.4,1505.2,321.6,-0.8,1.8,2471.335,13.28,0.055,138.6
2022-12-20T04:52:03,42.805,6.029,0.026,-0.046,0.047,102.0,100.0,100.0,13.4,1505.2,332.1,-0.8,1.8,2471.311,13.28,0.052,150.5
2022-12-20T04:55:03,42.805,6.029,0.037,-0.032,0.019,101.0,101.0,101.0,13.3,1505.2,327.9,-0.8,1.8,2471.339,13.28,0.048,130.9
2022-12-20T04:58:03,42.805,6.029,0.063,-0.051,0.018,101.0,101.0,101.0,13.3,1505.2,318.2,-0.8,1.8,2471.321,13.28,0.081,129.0
2022-12-20T05:04:03,42.805,6.029,0.046,-0.053,0.025,101.0,101.0,101.0,13.3,1505.2,329.8,-0.8,1.8,2471.333,13.28,0.07,139.0
2022-12-20T05:07:03,42.805,6.029,0.041,-0.042,0.021,101.0,102.0,101.0,13.3,1505.2,332.3,-0.8,1.8,2471.356,13.28,0.058,135.7
2022-12-20T05:10:03,42.805,6.029,0.04,-0.029,0.028,101.0,102.0,101.0,13.4,1505.2,328.7,-0.8,1.8,2471.328,13.28,0.049,125.9
2022-12-20T05:13:03,42.805,6.029,0.049,-0.023,0.059,101.0,102.0,100.0,13.4,1505.2,330.0,-0.8,1.8,2471.336,13.28,0.054,115.1
2022-12-20T05:16:03,42.805,6.029,0.051,-0.042,0.014,101.0,102.0,101.0,13.3,1505.2,323.1,-0.8,1.8,2471.336,13.28,0.066,129.5
2022-12-20T05:19:03,42.805,6.029,0.046,-0.034,0.036,101.0,101.0,101.0,13.3,1505.2,316.9,-0.8,1.8,2471.316,13.28,0.057,126.5
2022-12-20T05:22:03,42.805,6.029,0.042,-0.033,0.053,100.0,101.0,101.0,13.3,1505.2,326.9,-0.8,1.8,2471.306,13.28,0.053,128.2
2022-12-20T05:25:03,42.805,6.029,0.063,-0.033,0.041,101.0,100.0,101.0,13.4,1505.2,322.5,-0.7,1.8,2471.313,13.28,0.071,117.6
2022-12-20T05:28:03,42.805,6.029,0.048,-0.035,0.067,101.0,101.0,101.0,13.4,1505.2,330.7,-0.7,1.8,2471.331,13.28,0.059,126.1
2022-12-20T05:31:03,42.805,6.029,0.023,-0.045,0.003,101.0,102.0,101.0,13.3,1505.2,322.2,-0.7,1.8,2471.324,13.28,0.05,152.9
2022-12-20T05:34:03,42.805,6.029,0.054,-0.046,0.024,101.0,102.0,101.0,13.4,1505.2,317.0,-0.7,1.8,2471.301,13.28,0.07,130.4
2022-12-20T05:37:03,42.805,6.029,0.038,-0.059,0.026,100.0,101.0,101.0,13.4,1505.2,330.6,-0.8,1.8,2471.312,13.28,0.07,147.2
2022-12-20T05:40:03,42.805,6.029,0.05,-0.039,0.055,100.0,101.0,101.0,13.4,1505.2,332.3,-0.8,1.8,2471.332,13.28,0.063,128.0
2022-12-20T05:43:03,42.805,6.029,0.033,-0.054,-0.022,100.0,102.0,101.0,13.4,1505.2,334.9,-0.7,1.8,2471.309,13.28,0.063,148.6
2022-12-20T05:46:03,42.805,6.029,0.032,-0.032,0.025,102.0,101.0,100.0,13.3,1505.2,324.2,-0.8,1.8,2471.274,13.28,0.045,135.0
2022-12-20T05:49:03,42.805,6.029,0.059,-0.064,-0.005,99.0,101.0,101.0,13.4,1505.2,322.1,-0.7,1.8,2471.325,13.28,0.087,137.3
2022-12-20T05:52:03,42.805,6.029,0.05,-0.033,0.037,100.0,101.0,101.0,13.3,1505.2,317.4,-0.8,1.8,2471.296,13.28,0.059,123.4
2022-12-20T05:55:03,42.805,6.029,0.046,-0.034,0.024,101.0,102.0,101.0,13.4,1505.2,321.2,-0.8,1.8,2471.307,13.28,0.057,126.5
2022-12-20T05:58:03,42.805,6.029,0.04,-0.051,0.069,101.0,102.0,101.0,13.4,1505.2,336.1,-0.7,1.9,2471.311,13.28,0.064,141.9
2022-12-20T06:04:03,42.805,6.029,0.03,-0.025,0.05,100.0,102.0,100.0,13.4,1505.2,336.0,-0.8,1.8,2471.349,13.28,0.039,129.8
2022-12-20T06:07:03,42.805,6.029,0.051,-0.034,0.034,101.0,102.0,101.0,13.4,1505.2,326.3,-0.8,1.8,2471.332,13.28,0.061,123.7
2022-12-20T06:10:03,42.805,6.029,0.05,-0.059,0.033,101.0,101.0,101.0,13.3,1505.2,335.2,-0.8,1.8,2471.313,13.28,0.077,139.7
2022-12-20T06:13:03,42.805,6.029,0.062,-0.05,0.029,99.0,101.0,102.0,13.4,1505.2,321.8,-0.7,1.8,2471.278,13.28,0.079,128.9
2022-12-20T06:16:03,42.805,6.029,0.008,-0.037,-0.001,101.0,103.0,99.0,13.4,1505.2,330.7,-0.7,1.8,2471.299,13.28,0.037,167.8
2022-12-20T06:19:03,42.805,6.029,0.067,-0.05,0.024,100.0,102.0,101.0,13.3,1505.2,322.1,-0.7,1.8,2471.341,13.28,0.083,126.7
2022-12-20T06:22:03,42.805,6.029,0.059,-0.039,0.026,100.0,101.0,101.0,13.4,1505.2,326.3,-0.8,1.8,2471.328,13.28,0.07,123.5
2022-12-20T06:25:03,42.805,6.029,0.031,-0.016,0.033,101.0,102.0,100.0,13.3,1505.2,326.9,-0.8,1.9,2471.305,13.28,0.034,117.3
2022-12-20T06:28:03,42.805,6.029,0.046,-0.028,0.034,100.0,102.0,101.0,13.4,1505.2,326.5,-0.7,1.8,2471.293,13.28,0.053,121.3
2022-12-20T06:31:03,42.805,6.029,0.037,-0.016,0.055,100.0,101.0,101.0,13.3,1505.2,321.8,-0.8,1.8,2471.298,13.28,0.04,113.4
2022-12-20T06:34:03,42.805,6.029,0.04,-0.025,0.04,101.0,101.0,101.0,13.4,1505.2,323.2,-0.8,1.9,2471.282,13.28,0.047,122.0
2022-12-20T06:37:03,42.805,6.029,0.047,-0.038,0.009,100.0,102.0,101.0,13.4,1505.2,319.2,-0.8,1.8,2471.264,13.28,0.06,129.0
2022-12-20T06:40:03,42.805,6.029,0.024,-0.012,0.055,101.0,102.0,100.0,13.3,1505.2,319.9,-0.8,1.8,2471.311,13.28,0.026,116.6
2022-12-20T06:43:03,42.805,6.029,0.041,-0.051,0.016,101.0,102.0,100.0,13.4,1505.2,323.8,-0.8,1.8,2471.284,13.28,0.065,141.2
2022-12-20T06:46:03,42.805,6.029,0.058,-0.041,0.032,102.0,101.0,100.0,13.4,1505.2,330.2,-0.8,1.9,2471.314,13.28,0.071,125.3
2022-12-20T06:49:03,42.805,6.029,0.029,-0.014,0.05,100.0,101.0,101.0,13.4,1505.2,317.4,-0.8,1.8,2471.265,13.28,0.032,115.8
2022-12-20T06:52:03,42.805,6.029,0.003,-0.024,-0.008,100.0,103.0,101.0,13.4,1505.2,322.9,-0.8,1.8,2471.295,13.28,0.024,172.9
2022-12-20T06:55:03,42.805,6.029,0.032,-0.025,0.014,100.0,103.0,100.0,13.4,1505.2,324.7,-0.8,1.8,2471.284,13.28,0.04,128.0
2022-12-20T06:58:03,42.805,6.029,0.05,-0.051,0.015,100.0,101.0,101.0,13.4,1505.2,321.5,-0.7,1.8,2471.249,13.28,0.071,135.6
2022-12-20T07:04:03,42.805,6.029,0.072,-0.029,0.049,101.0,102.0,100.0,13.4,1505.2,319.8,-0.7,1.8,2471.283,13.28,0.077,111.9
2022-12-20T07:07:03,42.805,6.029,0.051,-0.035,0.042,100.0,102.0,101.0,13.4,1505.2,331.1,-0.7,1.8,2471.317,13.28,0.061,124.5
2022-12-20T07:10:03,42.805,6.029,0.033,-0.006,0.037,101.0,101.0,100.0,13.4,1505.2,319.7,-0.8,1.8,2471.304,13.28,0.033,100.3
2022-12-20T07:13:03,42.805,6.029,0.022,-0.061,-0.011,102.0,102.0,100.0,13.3,1505.2,331.9,-0.7,1.8,2471.296,13.28,0.064,160.2
2022-12-20T07:16:03,42.805,6.029,0.032,-0.03,0.021,100.0,102.0,101.0,13.3,1505.2,324.5,-0.8,1.8,2471.284,13.28,0.043,133.1
2022-12-20T07:19:03,42.805,6.029,0.034,-0.013,0.036,101.0,101.0,102.0,13.3,1505.2,333.7,-0.8,1.8,2471.278,13.28,0.036,110.9
2022-12-20T07:22:03,42.805,6.029,0.013,-0.046,0.001,100.0,100.0,101.0,13.4,1505.2,322.2,-0.8,1.8,2471.312,13.28,0.047,164.2
2022-12-20T07:25:03,42.805,6.029,0.048,-0.026,0.047,102.0,100.0,101.0,13.4,1505.2,318.1,-0.7,1.8,2471.236,13.28,0.054,118.4
2022-12-20T07:28:03,42.805,6.029,0.027,-0.035,0.02,101.0,102.0,100.0,13.4,1505.2,326.3,-0.8,1.8,2471.306,13.28,0.044,142.3
2022-12-20T07:31:03,42.805,6.029,0.018,-0.036,0.012,101.0,102.0,102.0,13.3,1505.2,333.4,-0.8,1.8,2471.273,13.28,0.04,153.4
2022-12-20T07:34:03,42.805,6.029,0.04,-0.045,0.038,99.0,102.0,101.0,13.4,1505.2,331.3,-0.8,1.8,2471.303,13.28,0.06,138.4
2022-12-20T07:37:03,42.805,6.029,0.058,-0.052,-0.009,100.0,101.0,101.0,13.3,1505.2,316.9,-0.8,1.8,2471.269,13.28,0.077,131.9
2022-12-20T07:40:03,42.805,6.029,0.025,-0.04,0.001,99.0,102.0,101.0,13.3,1505.2,331.1,-0.8,1.8,2471.276,13.28,0.047,148.0
2022-12-20T07:43:03,42.805,6.029,0.036,-0.003,0.061,101.0,102.0,100.0,13.4,1505.2,319.3,-0.7,1.8,2471.29,13.28,0.036,94.8
2022-12-20T07:46:03,42.805,6.029,0.015,-0.05,0.003,100.0,101.0,101.0,13.4,1505.2,327.5,-0.8,1.8,2471.277,13.28,0.052,163.3
2022-12-20T07:49:03,42.805,6.029,0.029,-0.009,0.05,102.0,99.0,101.0,13.3,1505.2,321.9,-0.8,1.8,2471.242,13.28,0.03,107.2
2022-12-20T07:52:03,42.805,6.029,0.037,-0.036,0.034,100.0,102.0,101.0,13.3,1505.2,322.0,-0.8,1.8,2471.285,13.28,0.051,134.2
2022-12-20T07:55:03,42.805,6.029,0.038,-0.024,0.04,102.0,102.0,101.0,13.4,1505.2,335.6,-0.8,1.9,2471.262,13.28,0.044,122.3
2022-12-20T07:58:03,42.805,6.029,0.068,-0.026,0.037,100.0,102.0,101.0,13.3,1505.2,320.7,-0.8,1.8,2471.312,13.28,0.072,110.9
2022-12-20T08:04:03,42.805,6.029,0.026,-0.028,0.033,99.0,102.0,101.0,13.4,1505.2,320.9,-0.8,1.8,2471.314,13.28,0.038,137.1
2022-12-20T08:07:03,42.805,6.029,0.011,-0.042,0.003,101.0,102.0,100.0,13.4,1505.2,331.1,-0.8,1.8,2471.292,13.28,0.043,165.3
2022-12-20T08:10:03,42.805,6.029,0.022,-0.039,0.02,101.0,100.0,101.0,13.3,1505.2,329.4,-0.7,1.8,2471.242,13.28,0.044,150.6
2022-12-20T08:13:03,42.805,6.029,0.02,-0.031,0.035,102.0,100.0,101.0,13.4,1505.2,330.0,-0.7,1.8,2471.292,13.28,0.036,147.2
2022-12-20T08:16:03,42.805,6.029,0.033,-0.029,0.017,100.0,103.0,100.0,13.4,1505.2,331.6,-0.8,1.8,2471.295,13.28,0.043,131.3
2022-12-20T08:19:03,42.805,6.029,0.062,-0.013,0.072,101.0,104.0,99.0,13.4,1505.2,322.6,-0.7,1.8,2471.252,13.28,0.063,101.8
2022-12-20T08:22:03,42.805,6.029,0.02,-0.033,0.013,99.0,102.0,101.0,13.4,1505.2,331.1,-0.8,1.8,2471.298,13.28,0.038,148.8
2022-12-20T08:25:03,42.805,6.029,0.033,-0.033,0.046,100.0,101.0,100.0,13.4,1505.2,329.8,-0.8,1.8,2471.278,13.28,0.046,135.0
2022-12-20T08:28:03,42.805,6.029,0.049,-0.028,0.033,102.0,101.0,101.0,13.3,1505.2,327.9,-0.8,1.8,2471.239,13.28,0.056,119.7
2022-12-20T08:31:03,42.805,6.029,0.051,-0.024,0.043,101.0,100.0,101.0,13.3,1505.2,331.1,-0.7,1.8,2471.262,13.28,0.056,115.2
2022-12-20T08:34:03,42.805,6.029,0.052,-0.051,0.014,100.0,101.0,101.0,13.3,1505.2,330.8,-0.8,1.8,2471.263,13.28,0.072,134.4
2022-12-20T08:37:03,42.805,6.029,0.045,-0.015,0.071,100.0,102.0,100.0,13.4,1505.2,334.5,-0.7,1.8,2471.242,13.28,0.047,108.4
2022-12-20T08:40:03,42.805,6.029,0.062,-0.043,-0.001,101.0,101.0,100.0,13.4,1505.2,321.2,-0.7,1.8,2471.252,13.28,0.075,124.7
2022-12-20T08:43:03,42.805,6.029,0.027,-0.04,0.054,101.0,103.0,100.0,13.3,1505.2,324.9,-0.8,1.8,2471.272,13.28,0.048,146.0
2022-12-20T08:46:03,42.805,6.029,0.024,-0.029,0.028,101.0,102.0,100.0,13.3,1505.2,333.8,-0.7,1.8,2471.261,13.28,0.037,140.4
2022-12-20T08:49:03,42.805,6.029,0.034,-0.062,-0.003,100.0,101.0,100.0,13.3,1505.2,329.0,-0.7,1.8,2471.246,13.28,0.07,151.3
2022-12-20T08:52:03,42.805,6.029,0.037,-0.03,0.043,102.0,101.0,100.0,13.4,1505.2,321.5,-0.8,1.8,2471.285,13.28,0.047,129.0
2022-12-20T08:55:03,42.805,6.029,0.024,-0.025,0.022,101.0,101.0,100.0,13.4,1505.2,334.8,-0.7,1.8,2471.242,13.28,0.034,136.2
2022-12-20T08:58:03,42.805,6.029,0.016,-0.018,0.036,101.0,102.0,101.0,13.3,1505.2,321.4,-0.8,1.8,2471.257,13.28,0.024,138.4
2022-12-20T09:04:03,42.805,6.029,0.057,-0.046,0.024,100.0,102.0,101.0,13.3,1505.2,323.2,-0.7,1.8,2471.291,13.28,0.073,128.9
2022-12-20T09:07:03,42.805,6.029,0.034,-0.045,0.014,99.0,103.0,101.0,13.4,1505.2,322.9,-0.8,1.8,2471.272,13.28,0.056,142.9
2022-12-20T09:10:03,42.805,6.029,0.03,-0.025,0.049,100.0,101.0,101.0,13.4,1505.2,321.2,-0.8,1.8,2471.257,13.28,0.039,129.8
2022-12-20T09:13:03,42.805,6.029,0.026,-0.046,0.008,101.0,102.0,100.0,13.4,1505.2,335.9,-0.8,1.8,2471.286,13.28,0.052,150.5
2022-12-20T09:16:03,42.805,6.029,0.036,-0.047,0.012,100.0,104.0,101.0,13.4,1505.2,328.9,-0.8,1.8,2471.273,13.28,0.059,142.5
2022-12-20T09:19:03,42.805,6.029,0.03,-0.017,0.046,100.0,102.0,101.0,13.4,1505.2,316.9,-0.8,1.8,2471.265,13.28,0.034,119.5
2022-12-20T09:22:03,42.805,6.029,0.055,-0.045,0.008,99.0,101.0,101.0,13.3,1505.2,321.5,-0.7,1.8,2471.246,13.28,0.071,129.3
2022-12-20T09:25:03,42.805,6.029,0.022,-0.034,0.043,101.0,102.0,100.0,13.4,1505.2,330.0,-0.7,1.8,2471.251,13.28,0.04,147.1
2022-12-20T09:28:03,42.805,6.029,0.02,-0.052,0.002,101.0,102.0,100.0,13.4,1505.2,323.1,-0.7,1.8,2471.309,13.28,0.055,159.0
2022-12-20T09:31:03,42.805,6.029,0.005,-0.006,0.047,101.0,100.0,100.0,13.3,1505.2,317.9,-0.8,1.8,2471.252,13.28,0.007,140.2
2022-12-20T09:34:03,42.805,6.029,0.014,-0.027,0.011,102.0,102.0,99.0,13.3,1505.2,330.2,-0.8,1.8,2471.215,13.28,0.03,152.6
2022-12-20T09:37:03,42.805,6.029,0.032,-0.029,0.026,100.0,102.0,100.0,13.4,1505.2,321.1,-0.8,1.8,2471.256,13.28,0.043,132.2
2022-12-20T09:40:03,42.805,6.029,0.046,-0.022,0.034,100.0,102.0,100.0,13.4,1505.2,320.1,-0.7,1.8,2471.253,13.28,0.05,115.6
2022-12-20T09:43:03,42.805,6.029,0.012,-0.024,0.021,101.0,100.0,101.0,13.4,1505.2,327.9,-0.8,1.8,2471.221,13.28,0.026,153.4
2022-12-20T09:46:03,42.805,6.029,0.033,-0.032,0.014,99.0,103.0,101.0,13.4,1505.2,330.5,-0.8,1.8,2471.233,13.28,0.045,134.1
2022-12-20T09:49:03,42.805,6.029,0.028,-0.02,0.042,101.0,103.0,100.0,13.4,1505.2,328.8,-0.7,1.8,2471.24,13.28,0.034,125.5
2022-12-20T09:52:03,42.805,6.029,0.012,-0.028,0.011,101.0,102.0,100.0,13.3,1505.2,328.8,-0.8,1.8,2471.188,13.28,0.03,156.8
2022-12-20T09:55:03,42.805,6.029,0.04,-0.026,0.035,100.0,102.0,100.0,13.4,1505.2,318.3,-0.8,1.8,2471.234,13.28,0.047,123.0
2022-12-20T09:58:03,42.805,6.029,0.019,-0.031,0.045,100.0,102.0,101.0,13.3,1505.2,335.9,-0.8,1.8,2471.239,13.28,0.036,148.5
2022-12-20T10:04:03,42.805,6.029,0.037,-0.011,0.039,100.0,101.0,101.0,13.4,1505.2,321.6,-0.7,1.8,2471.243,13.28,0.038,106.6
2022-12-20T10:07:03,42.805,6.029,0.058,-0.068,-0.001,100.0,102.0,100.0,13.4,1505.2,325.6,-0.8,1.8,2471.25,13.28,0.089,139.5
2022-12-20T10:10:03,42.805,6.029,0.047,-0.041,0.025,101.0,102.0,100.0,13.4,1505.2,330.4,-0.8,1.8,2471.255,13.28,0.062,131.1
2022-12-20T10:13:03,42.805,6.029,0.065,-0.02,0.052,101.0,103.0,100.0,13.4,1505.2,327.5,-0.8,1.8,2471.241,13.28,0.068,107.1
2022-12-20T10:16:03,42.805,6.029,0.031,-0.043,0.008,102.0,101.0,100.0,13.4,1505.2,331.1,-0.8,1.8,2471.263,13.28,0.053,144.2
2022-12-20T10:19:03,42.805,6.029,0.016,-0.05,0.004,99.0,103.0,100.0,13.4,1505.2,327.0,-0.8,1.8,2471.253,13.28,0.052,162.3
2022-12-20T10:22:03,42.805,6.029,0.035,-0.024,0.036,100.0,104.0,100.0,13.4,1505.2,330.1,-0.8,1.8,2471.27,13.28,0.042,124.4
2022-12-20T10:25:03,42.805,6.029,0.055,-0.039,0.034,100.0,103.0,101.0,13.4,1505.2,337.1,-0.8,1.8,2471.232,13.28,0.067,125.3
2022-12-20T10:28:03,42.805,6.029,0.017,-0.018,-0.011,100.0,101.0,101.0,13.3,1505.2,322.8,-0.8,1.8,2471.239,13.28,0.024,136.6
2022-12-20T10:31:03,42.805,6.029,0.01,-0.021,0.021,100.0,103.0,101.0,13.3,1505.2,323.7,-0.8,1.8,2471.239,13.28,0.023,154.5
2022-12-20T10:34:03,42.805,6.029,0.062,-0.036,0.027,100.0,102.0,100.0,13.4,1505.2,321.7,-0.8,1.8,2471.209,13.28,0.071,120.1
2022-12-20T10:37:03,42.805,6.029,0.027,-0.031,-0.01,100.0,102.0,100.0,13.4,1505.2,325.1,-0.7,1.8,2471.205,13.28,0.041,138.9
2022-12-20T10:40:03,42.805,6.029,0.027,-0.002,0.058,100.0,102.0,101.0,13.4,1505.2,323.4,-0.8,1.8,2471.231,13.28,0.027,94.2
2022-12-20T10:43:03,42.805,6.029,0.04,-0.011,0.047,101.0,103.0,101.0,13.3,1505.2,316.4,-0.8,1.8,2471.188,13.28,0.041,105.4
2022-12-20T10:46:03,42.805,6.029,0.034,-0.028,0.015,101.0,101.0,100.0,13.3,1505.2,327.7,-0.8,1.8,2471.217,13.28,0.044,129.5
2022-12-20T10:49:03,42.805,6.029,0.028,-0.045,-0.009,101.0,102.0,100.0,13.3,1505.2,325.8,-0.7,1.8,2471.219,13.28,0.053,148.1
2022-12-20T10:52:03,42.805,6.029,0.051,-0.025,0.023,100.0,102.0,100.0,13.4,1505.2,336.5,-0.8,1.8,2471.216,13.28,0.056,116.1
2022-12-20T10:55:03,42.805,6.029,0.044,-0.037,0.024,101.0,101.0,101.0,13.4,1505.2,316.9,-0.8,1.8,2471.236,13.28,0.057,130.1
2022-12-20T10:58:03,42.805,6.029,0.007,-0.016,0.032,100.0,102.0,100.0,13.3,1505.2,335.6,-0.7,1.8,2471.209,13.28,0.017,156.4